Lid_Strength_Index
-2 -2 -2 -2 -2 -2 -1 -1 -1 -1 -1 -1 -1 -1 -1 0 2 3 2 2 1 -1 -0 1 0 1 6 9 9 4 1 3 6 7 9 10 12 14 16 15 15 17 14 13 12 12 12
-2 -2 -2 -2 -2 -2 -2 -1 -1 -1 -1 -1 -1 -1 -0 0 1 2 2 1 1 -1 0 1 1 2 8 11 5 4 5 7 7 8 9 10 12 12 14 15 16 14 14 14 13 13 12
-2 -2 -2 -2 -2 -2 -2 -1 -1 -1 -1 -1 -0 -1 -1 0 1 2 1 1 -1 -0 0 0 1 6 9 9 6 6 6 8 8 8 10 9 9 11 13 15 13 14 16 15 14 13 13
-1 -2 -2 -2 -2 -2 -2 -2 -1 -1 -1 -1 -1 -1 -1 0 1 0 0 -0 -0 0 -0 1 2 8 12 7 6 7 8 8 7 7 8 8 8 11 13 13 14 16 17 19 15 13 12
-1 -2 -2 -2 -2 -2 -2 -1 -1 -1 -1 -1 -1 -1 -0 1 -0 -1 -1 -0 -0 0 1 2 6 9 12 6 8 8 8 8 8 8 7 6 8 12 12 17 19 17 21 19 16 12 12
-1 -1 -1 -2 -2 -2 -2 -2 -1 -1 -1 -1 -1 -1 -1 -1 -0 -0 -0 0 1 2 4 6 7 12 10 11 8 8 8 6 8 9 9 10 13 16 16 18 23 22 22 19 18 14 13
-0 -1 -1 -0 -1 -1 -2 -2 -2 -2 -1 -1 -1 -1 -1 -1 -1 0 2 4 8 9 8 11 11 10 9 8 6 7 6 8 9 11 14 12 17 19 18 16 16 16 17 17 15 13 14
-0 -1 -1 -1 -1 -0 -0 -1 -1 -1 -1 -1 -1 -1 -1 -0 1 1 3 7 8 7 11 8 8 8 7 6 9 8 6 10 11 15 12 15 19 14 12 13 14 16 16 17 14 13 14
0 -0 -1 -1 -0 -0 -0 -0 -0 -0 -1 -1 -1 -1 -1 0 1 3 5 6 5 7 11 9 8 8 8 6 9 9 7 8 10 11 11 15 14 11 12 13 14 15 17 17 17 14 13
1 0 -0 -0 -0 -0 -1 -0 -0 0 -0 -0 -0 0 0 1 4 5 7 5 5 7 16 12 10 8 7 7 9 5 4 8 11 12 12 15 12 12 13 14 13 16 14 14 14 15 17
1 1 1 0 0 0 -0 -1 -1 -1 -0 -0 -0 1 1 2 5 5 5 4 5 9 21 11 9 5 6 8 8 8 5 8 13 12 12 15 13 12 13 12 12 14 12 13 13 14 15
2 1 1 0 0 0 0 -0 0 1 1 0 0 1 1 4 5 5 5 5 9 17 23 15 9 10 10 8 8 8 7 6 7 10 10 11 10 11 12 11 11 11 12 13 12 14 20
2 2 2 1 0 0 -0 -0 0 0 0 1 2 2 4 4 8 5 6 9 17 21 14 14 13 10 10 11 10 9 10 10 12 15 20 14 13 12 11 13 10 11 14 20 22 23 22
2 2 3 2 1 1 0 0 0 0 0 0 2 3 4 5 5 6 9 13 20 14 15 11 11 11 13 11 10 10 11 13 11 11 14 19 19 14 11 12 13 13 14 18 25 22 20
3 3 3 3 2 2 1 1 0 -0 -1 -0 2 7 7 6 5 7 11 18 17 14 12 12 11 14 14 12 12 12 13 14 13 12 15 17 17 12 11 10 11 13 16 12 17 16 19
3 4 4 4 3 3 2 2 1 0 -0 2 7 8 8 6 6 9 13 15 14 11 10 11 14 14 16 14 14 14 15 13 13 12 12 14 16 12 10 9 10 12 11 17 19 21 23
4 4 4 4 4 4 3 2 2 1 1 3 9 10 7 6 8 11 16 15 12 9 9 11 13 14 14 14 15 16 15 13 11 12 11 13 14 14 12 14 15 15 16 16 16 17 21
4 4 4 4 4 4 3 3 2 2 2 7 11 14 8 8 12 14 14 13 9 10 10 10 11 12 14 15 15 16 15 13 10 11 14 12 15 17 15 12 12 14 16 17 21 20 19
3 3 4 4 4 4 3 3 3 2 4 10 13 13 9 10 17 16 13 12 11 11 12 12 12 12 13 14 16 14 14 10 10 11 13 12 16 21 18 16 14 15 16 16 16 18 21
3 3 3 4 4 4 3 3 3 2 3 10 13 16 13 13 14 15 16 14 14 11 11 11 12 12 13 15 14 15 14 12 10 11 7 10 16 17 21 17 16 16 15 15 17 22 19
4 4 3 3 3 3 3 3 3 3 4 10 13 15 14 17 15 15 15 14 14 14 12 12 13 13 14 16 15 16 14 12 12 10 12 13 17 18 16 15 15 15 15 15 19 17 19
5 4 5 4 3 3 3 3 4 4 5 11 14 14 15 16 15 16 14 15 14 13 13 14 14 13 14 15 15 16 15 15 16 13 14 14 17 16 18 16 16 17 16 16 15 16 16
7 5 4 5 5 4 5 4 4 4 6 11 12 13 13 15 16 17 16 15 13 13 12 12 13 14 14 13 12 12 12 13 14 15 15 16 17 18 20 18 18 20 18 16 15 15 15
8 7 6 5 5 5 5 4 4 5 7 10 12 13 15 17 16 16 15 14 13 13 14 12 12 14 12 11 12 14 15 14 14 14 14 16 17 18 20 20 24 19 15 15 15 15 14
7 8 7 6 5 5 5 4 4 4 6 10 12 12 15 17 16 16 15 15 14 14 14 13 12 12 12 13 15 17 18 17 17 16 16 15 17 19 21 23 20 19 17 16 17 17 15
7 8 8 7 6 5 5 5 4 5 7 11 12 12 13 16 17 15 15 15 16 17 16 14 12 12 13 15 17 20 22 21 20 19 17 17 17 19 21 23 23 20 16 14 16 20 17
7 7 8 8 7 6 6 5 5 5 6 11 12 12 12 15 15 15 15 16 14 16 16 16 14 15 14 17 18 20 20 19 21 21 20 19 20 21 21 22 20 18 15 15 21 19 16
6 7 7 8 8 7 7 6 5 5 6 10 12 12 12 15 14 13 12 14 14 14 16 14 15 15 15 17 18 18 20 19 21 19 20 19 21 22 22 23 23 16 16 18 17 17 15
6 7 7 7 8 8 7 6 7 6 5 8 12 12 11 13 14 12 12 11 11 11 13 14 15 15 14 16 17 17 17 20 20 20 20 20 18 19 19 19 16 15 15 15 15 15 15